DW4699 Weather Reports


Display with metric or nautical units.
time (UTC)temp
F
wind
direction
speed
MPH
gust
MPH
rain 1hr
in
rain 24hr
in
rain mn
in
humidity
%
barometer
mb
20181116011837 35 243 0.0 4.0 0.00 0.00 0.00 96 1007.0
20181116011329 35 243 1.0 4.0 0.00 0.00 0.00 96 1007.3
20181116010842 35 251 0.0 2.0 0.00 0.00 0.00 96 1007.4
20181116010331 35 255 0.0 2.0 0.00 0.00 0.00 96 1007.6
20181116005824 35 255 0.0 2.0 0.00 0.00 0.00 96 1007.8
20181116005336 35 255 1.0 2.0 0.00 0.00 0.00 96 1007.9
20181116004831 35 252 0.0 2.0 0.00 0.00 0.00 96 1008.1
20181116004323 35 252 0.0 2.0 0.00 0.00 0.00 96 1008.4
20181116003836 35 252 1.0 2.0 0.00 0.00 0.00 96 1008.4
20181116003327 35 253 0.0 2.0 0.00 0.00 0.00 95 1008.4
20181116002837 35 255 0.0 2.0 0.00 0.00 0.00 95 1008.8
20181116002326 35 255 0.0 2.0 0.00 0.00 0.00 95 1008.9
20181116001839 35 255 0.0 2.0 0.00 0.00 0.00 95 1009.2
20181116001331 35 255 0.0 2.0 0.00 0.00 0.00 95 1009.6
20181116000844 35 255 0.0 2.0 0.00 0.00 0.00 95 1009.7
20181116000329 35 255 0.0 1.0 0.00 0.00 0.00 95 1010.0
20181115235826 35 251 0.0 2.0 0.00 0.00 0.00 95 1010.3
20181115235338 34 251 0.0 2.0 0.00 0.00 0.00 95 1010.5
20181115234828 34 251 0.0 2.0 0.00 0.00 0.00 95 1010.5
20181115234321 34 251 0.0 3.0 0.00 0.00 0.00 95 1010.5
20181115233853 34 256 1.0 3.0 0.00 0.00 0.00 95 1010.5
20181115233326 34 332 0.0 2.0 0.00 0.00 0.00 95 1010.3
20181115232846 34 342 0.0 2.0 0.00 0.00 0.00 95 1010.4
20181115232335 34 318 0.0 2.0 0.00 0.00 0.00 95 1010.6
20181115231823 34 340 0.0 2.0 0.00 0.00 0.00 95 1011.1
20181115231336 34 342 0.0 3.0 0.00 0.00 0.00 95 1011.3
20181115230833 34 344 1.0 3.0 0.00 0.00 0.00 95 1011.5
20181115230322 34 330 1.0 3.0 0.00 0.00 0.00 95 1011.5
20181115225835 34 293 0.0 2.0 0.00 0.00 0.00 95 1011.7
20181115225328 34 293 1.0 3.0 0.00 0.00 0.00 95 1012.0
20181115224836 34 294 1.0 3.0 0.00 0.00 0.00 95 1012.3
20181115224330 34 217 0.0 4.0 0.00 0.00 0.00 95 1012.3
20181115223843 34 215 0.0 4.0 0.00 0.00 0.00 95 1012.6
20181115223327 34 215 0.0 4.0 0.00 0.00 0.00 95 1012.6
20181115222827 34 215 0.0 4.0 0.00 0.00 0.00 95 1012.8
20181115222353 34 216 0.0 4.0 0.00 0.00 0.00 95 1012.6
20181115221842 34 47 0.0 4.0 0.00 0.00 0.00 95 1012.8
20181115221328 34 185 1.0 2.0 0.00 0.00 0.00 95 1013.1
20181115220842 34 185 0.0 6.0 0.00 0.00 0.00 95 1013.2
20181115220336 34 209 2.0 6.0 0.00 0.00 0.00 95 1013.6
20181115215825 34 197 0.0 4.0 0.00 0.00 0.00 95 1013.5
20181115215321 34 199 0.0 4.0 0.00 0.00 0.00 95 1013.7
20181115214834 34 204 0.0 4.0 0.00 0.00 0.00 95 1013.9
20181115214325 34 279 0.0 3.0 0.00 0.00 0.00 95 1013.7
20181115213838 34 286 0.0 4.0 0.00 0.00 0.00 95 1013.7
20181115213331 34 302 1.0 6.0 0.00 0.00 0.00 95 1013.9
20181115212822 34 101 2.0 6.0 0.00 0.00 0.00 95 1014.1
20181115212342 34 13 0.0 4.0 0.00 0.00 0.00 95 1014.0
20181115211824 34 242 1.0 5.0 0.00 0.00 0.00 95 1013.9
20181115211342 34 247 1.0 7.0 0.00 0.00 0.00 95 1014.1
20181115210836 34 212 0.0 5.0 0.00 0.00 0.00 95 1014.0
20181115210321 34 163 2.0 5.0 0.00 0.00 0.00 95 1014.6
20181115205835 34 358 0.0 6.0 0.00 0.00 0.00 95 1015.1
20181115205317 34 264 0.0 5.0 0.00 0.00 0.00 95 1015.4
20181115204832 34 36 1.0 5.0 0.00 0.00 0.00 95 1015.5
20181115204325 34 26 1.0 3.0 0.00 0.00 0.00 95 1015.4
20181115203839 34 345 1.0 3.0 0.00 0.00 0.00 95 1015.7
20181115203329 34 257 0.0 2.0 0.00 0.00 0.00 95 1016.8
20181115202823 34 257 0.0 2.0 0.00 0.00 0.00 95 1016.6
20181115202333 34 359 0.0 4.0 0.00 0.00 0.00 95 1016.3
20181115201841 34 359 1.0 4.0 0.00 0.00 0.00 95 1016.4
20181115201323 34 282 0.0 4.0 0.00 0.00 0.00 95 1016.3
20181115200836 33 250 0.0 3.0 0.00 0.00 0.00 95 1016.5
20181115200325 33 7 0.0 3.0 0.00 0.00 0.00 95 1016.7
20181115195838 33 225 0.0 4.0 0.00 0.00 0.00 95 1016.6
20181115195334 33 225 1.0 4.0 0.00 0.00 0.00 95 1016.5
20181115194843 33 225 0.0 2.0 0.00 0.00 0.00 94 1016.6
20181115194328 33 225 0.0 4.0 0.00 0.00 0.00 94 1016.8
20181115193842 33 223 1.0 4.0 0.00 0.00 0.00 94 1017.3
20181115193327 33 220 0.0 4.0 0.00 0.00 0.00 94 1017.5
20181115192840 33 220 1.0 4.0 0.00 0.00 0.00 94 1017.7
20181115192322 33 221 0.0 4.0 0.00 0.00 0.00 94 1017.8
20181115191836 33 221 1.0 4.0 0.00 0.00 0.00 94 1017.8
20181115191327 33 316 0.0 3.0 0.00 0.00 0.00 94 1017.8
20181115190840 33 332 1.0 3.0 0.00 0.00 0.00 94 1017.8
20181115190335 33 23 0.0 2.0 0.00 0.00 0.00 94 1018.1
20181115185824 33 30 0.0 4.0 0.00 0.00 0.00 94 1018.3
20181115185322 33 25 0.0 4.0 0.00 0.00 0.00 94 1018.7
20181115184835 33 32 0.0 4.0 0.00 0.00 0.00 94 1019.3
20181115184328 33 287 0.0 2.0 0.00 0.00 0.00 94 1019.4
20181115183841 33 338 0.0 4.0 0.00 0.00 0.00 94 1019.3
20181115183331 33 11 1.0 4.0 0.00 0.00 0.00 94 1019.8
20181115182844 33 230 0.0 4.0 0.00 0.00 0.00 94 1019.9
20181115182329 33 230 0.0 4.0 0.00 0.00 0.00 94 1020.2
20181115181822 33 230 0.0 4.0 0.00 0.00 0.00 94 1020.2
20181115181321 33 231 0.0 4.0 0.00 0.00 0.00 94 1020.3
20181115180834 33 240 1.0 2.0 0.00 0.00 0.00 94 1020.1
20181115180324 33 240 1.0 2.0 0.00 0.00 0.00 94 1020.4
20181115175837 32 316 0.0 2.0 0.00 0.00 0.00 94 1020.4
20181115175347 32 317 0.0 2.0 0.00 0.00 0.00 94 1020.5
20181115174822 32 36 1.0 2.0 0.00 0.00 0.00 94 1021.0
20181115174337 32 36 0.0 3.0 0.00 0.00 0.00 94 1021.0
20181115173832 32 35 0.0 3.0 0.00 0.00 0.00 94 1021.3
20181115173341 32 36 0.0 3.0 0.00 0.00 0.00 94 1021.1
20181115172323 31 196 0.0 4.0 0.00 0.00 0.00 94 1021.8
20181115171839 31 196 1.0 6.0 0.00 0.00 0.00 93 1021.9
20181115171329 31 208 1.0 6.0 0.00 0.00 0.00 93 1022.1
20181115170817 31 323 0.0 4.0 0.00 0.00 0.00 93 1022.3
20181115170333 31 215 1.0 4.0 0.00 0.00 0.00 93 1022.4
20181115165827 31 215 1.0 4.0 0.00 0.00 0.00 93 1022.7
20181115165337 31 73 1.0 2.0 0.00 0.00 0.00 93 1023.1
20181115164846 31 68 0.0 3.0 0.00 0.00 0.00 93 1023.9
20181115164329 31 68 0.0 3.0 0.00 0.00 0.00 93 1024.5
20181115163842 31 82 0.0 1.0 0.00 0.00 0.00 93 1024.7
20181115163334 31 68 0.0 1.0 0.00 0.00 0.00 93 1024.8
20181115162825 31 68 0.0 1.0 0.00 0.00 0.00 92 1025.0
20181115162323 31 68 0.0 1.0 0.00 0.00 0.00 92 1025.3
20181115161835 31 68 0.0 2.0 0.00 0.00 0.00 92 1025.4
20181115161328 31 68 0.0 2.0 0.00 0.00 0.00 92 1025.7
20181115160841 31 68 0.0 2.0 0.00 0.00 0.00 92 1025.8
20181115160323 31 68 0.0 2.0 0.00 0.00 0.00 92 1026.2
20181115155836 31 68 0.0 2.0 0.00 0.00 0.00 92 1026.2
20181115155329 31 165 0.0 2.0 0.00 0.00 0.00 92 1026.2
20181115154838 31 165 0.0 2.0 0.00 0.00 0.00 92 1026.1
20181115154331 31 165 0.0 2.0 0.00 0.00 0.00 92 1026.4
20181115153848 31 165 0.0 2.0 0.00 0.00 0.00 92 1026.5
20181115153337 31 199 0.0 2.0 0.00 0.00 0.00 92 1026.2
20181115152830 31 209 0.0 2.0 0.00 0.00 0.00 92 1026.2
20181115152319 31 209 0.0 2.0 0.00 0.00 0.00 92 1026.4
20181115151832 31 210 0.0 1.0 0.00 0.00 0.00 92 1026.5
20181115151324 31 210 0.0 1.0 0.00 0.00 0.00 92 1026.8
20181115150837 31 210 0.0 2.0 0.00 0.00 0.00 91 1027.4
20181115150331 31 210 0.0 2.0 0.00 0.00 0.00 91 1027.5
20181115145821 31 209 0.0 2.0 0.00 0.00 0.00 91 1027.5
20181115145322 31 210 0.0 3.0 0.00 0.00 0.00 91 1027.4
20181115144834 31 60 0.0 3.0 0.00 0.00 0.00 91 1027.4
20181115144324 31 99 0.0 1.0 0.00 0.00 0.00 91 1027.5
20181115143837 31 99 0.0 1.0 0.00 0.00 0.00 91 1027.6
20181115143332 31 99 0.0 3.0 0.00 0.00 0.00 91 1027.3
20181115142828 31 99 0.0 3.0 0.00 0.00 0.00 91 1027.2
20181115142342 30 122 0.0 2.0 0.00 0.00 0.00 91 1027.1
20181115141835 30 122 0.0 5.0 0.00 0.00 0.00 91 1027.3
20181115141339 30 122 1.0 5.0 0.00 0.00 0.00 91 1027.2
20181115140834 30 105 0.0 2.0 0.00 0.00 0.00 91 1027.4
20181115140341 30 105 0.0 2.0 0.00 0.00 0.00 91 1027.8
20181115135830 30 130 0.0 2.0 0.00 0.00 0.00 91 1028.1
20181115135324 30 138 0.0 1.0 0.00 0.00 0.00 91 1028.2
20181115134817 30 138 0.0 1.0 0.00 0.00 0.00 91 1028.2
20181115134316 31 138 0.0 1.0 0.00 0.00 0.00 91 1028.3
20181115133832 31 138 0.0 2.0 0.00 0.00 0.00 91 1028.3
20181115133323 31 137 0.0 3.0 0.00 0.00 0.00 91 1028.6
20181115132836 31 161 0.0 3.0 0.00 0.00 0.00 91 1028.7
20181115132319 31 163 1.0 2.0 0.00 0.00 0.00 91 1028.9
20181115131832 31 163 0.0 1.0 0.00 0.00 0.00 91 1029.1
20181115131325 31 163 0.0 1.0 0.00 0.00 0.00 90 1029.1
20181115130838 31 163 0.0 2.0 0.00 0.00 0.00 90 1029.2
20181115130330 31 163 0.0 2.0 0.00 0.00 0.00 90 1029.2
20181115125823 31 163 0.0 0.0 0.00 0.00 0.00 90 1029.3
20181115125336 31 163 0.0 1.0 0.00 0.00 0.00 90 1029.4
20181115124833 31 163 0.0 1.0 0.00 0.00 0.00 90 1029.3
20181115124326 31 163 0.0 2.0 0.00 0.00 0.00 90 1029.4
20181115123841 32 163 0.0 2.0 0.00 0.00 0.00 89 1029.4
20181115123338 32 163 0.0 0.0 0.00 0.00 0.00 88 1029.7
20181115122831 32 163 0.0 1.0 0.00 0.00 0.00 88 1029.7
20181115122341 32 163 0.0 1.0 0.00 0.00 0.00 87 1029.7
20181115121831 32 163 0.0 1.0 0.00 0.00 0.00 86 1029.8
20181115121328 32 163 0.0 1.0 0.00 0.00 0.00 85 1030.0
20181115120817 32 163 0.0 4.0 0.00 0.00 0.00 84 1030.1
20181115120332 33 163 0.0 4.0 0.00 0.00 0.00 83 1030.1
20181115115825 33 210 0.0 4.0 0.00 0.00 0.00 81 1030.0
20181115115338 33 210 0.0 4.0 0.00 0.00 0.00 79 1030.1
20181115114831 34 213 0.0 2.0 0.00 0.00 0.00 77 1030.3
20181115114324 34 214 0.0 1.0 0.00 0.00 0.00 74 1030.3
20181115113837 34 214 0.0 1.0 0.00 0.00 0.00 72 1030.3
20181115113321 34 214 0.0 1.0 0.00 0.00 0.00 72 1030.3
20181115112837 34 214 0.0 1.0 0.00 0.00 0.00 71 1030.3
20181115112348 34 214 0.0 2.0 0.00 0.00 0.00 69 1030.3
20181115111843 34 214 0.0 2.0 0.00 0.00 0.00 70 1030.4
20181115111335 34 214 0.0 2.0 0.00 0.00 0.00 69 1030.4
20181115110831 34 214 0.0 2.0 0.00 0.00 0.00 71 1030.4
20181115110342 34 214 0.0 2.0 0.00 0.00 0.00 70 1030.4
20181115105835 34 214 1.0 2.0 0.00 0.00 0.00 71 1030.2
20181115105324 34 212 0.0 2.0 0.00 0.00 0.00 70 1030.1
20181115104837 34 212 0.0 2.0 0.00 0.00 0.00 71 1030.2
20181115104330 34 212 0.0 2.0 0.00 0.00 0.00 72 1030.2
20181115103843 34 212 0.0 1.0 0.00 0.00 0.00 71 1030.2
20181115103335 34 212 0.0 1.0 0.00 0.00 0.00 72 1030.3
20181115102832 34 212 0.0 1.0 0.00 0.00 0.00 71 1030.3
20181115102326 34 212 0.0 1.0 0.00 0.00 0.00 71 1030.4
20181115101839 34 212 0.0 1.0 0.00 0.00 0.00 71 1030.5
20181115101332 35 212 0.0 2.0 0.00 0.00 0.00 72 1030.6
20181115100846 35 212 1.0 2.0 0.00 0.00 0.00 72 1030.7
20181115100338 35 212 0.0 4.0 0.00 0.00 0.00 71 1030.7
20181115095831 35 212 0.0 4.0 0.00 0.00 0.00 71 1030.7
20181115095324 35 226 0.0 2.0 0.00 0.00 0.00 72 1030.8
20181115094832 35 226 0.0 2.0 0.00 0.00 0.00 70 1031.1
20181115094325 35 226 0.0 2.0 0.00 0.00 0.00 68 1030.9
20181115093838 35 226 0.0 2.0 0.00 0.00 0.00 67 1030.9
20181115093335 35 226 0.0 2.0 0.00 0.00 0.00 68 1030.7
20181115092828 36 226 0.0 2.0 0.00 0.00 0.00 66 1030.6
20181115092321 36 226 0.0 0.0 0.00 0.00 0.00 65 1030.7
20181115091838 36 226 0.0 1.0 0.00 0.00 0.00 65 1030.9
20181115091332 36 226 0.0 1.0 0.00 0.00 0.00 65 1031.1
20181115090822 36 226 0.0 1.0 0.00 0.00 0.00 63 1031.3
20181115090338 36 226 0.0 2.0 0.00 0.00 0.00 63 1031.2
20181115085831 36 226 0.0 2.0 0.00 0.00 0.00 63 1031.3
20181115085324 36 226 0.0 0.0 0.00 0.00 0.00 64 1031.5
20181115084834 36 226 0.0 1.0 0.00 0.00 0.00 64 1031.7
20181115084331 36 226 0.0 1.0 0.00 0.00 0.00 63 1031.9
20181115083821 36 226 0.0 1.0 0.00 0.00 0.00 63 1031.8
20181115083337 36 226 0.0 1.0 0.00 0.00 0.00 63 1031.8
20181115082831 36 226 0.0 2.0 0.00 0.00 0.00 64 1031.4
20181115082324 36 226 0.0 4.0 0.00 0.00 0.00 64 1031.6
20181115081817 36 226 0.0 4.0 0.00 0.00 0.00 63 1031.4
20181115081331 36 219 0.0 1.0 0.00 0.00 0.00 63 1031.4
20181115080845 36 219 0.0 4.0 0.00 0.00 0.00 62 1031.6
20181115080340 36 219 0.0 4.0 0.00 0.00 0.00 63 1031.7
20181115075833 36 219 0.0 1.0 0.00 0.00 0.00 62 1031.9
20181115075329 36 219 0.0 2.0 0.00 0.00 0.00 62 1032.1
20181115074836 36 219 0.0 1.0 0.00 0.00 0.00 63 1032.1
20181115074321 36 219 0.0 1.0 0.00 0.00 0.00 62 1032.3
20181115073840 36 219 0.0 4.0 0.00 0.00 0.00 62 1032.3
20181115073323 36 219 0.0 4.0 0.00 0.00 0.00 61 1032.4
20181115072836 36 219 0.0 2.0 0.00 0.00 0.00 62 1032.5
20181115072319 36 219 0.0 2.0 0.00 0.00 0.00 62 1032.5
20181115071835 36 219 0.0 1.0 0.00 0.00 0.00 62 1032.5
20181115071328 36 219 0.0 0.0 0.00 0.00 0.00 61 1032.4
20181115070841 36 219 0.0 1.0 0.00 0.00 0.00 62 1032.4
20181115070331 36 219 0.0 1.0 0.00 0.00 0.00 61 1032.5
20181115065823 36 219 0.0 1.0 0.00 0.00 0.00 62 1032.5
20181115065335 36 219 0.0 2.0 0.00 0.00 0.00 61 1032.6
20181115064823 36 219 1.0 2.0 0.00 0.00 0.00 61 1032.5
20181115064317 36 219 0.0 2.0 0.00 0.00 0.00 60 1032.4
20181115063836 36 219 0.0 2.0 0.00 0.00 0.00 61 1032.3
20181115063322 36 219 0.0 1.0 0.00 0.00 0.00 60 1032.2
20181115062834 36 219 0.0 2.0 0.00 0.00 0.00 61 1032.2
20181115062328 36 219 0.0 2.0 0.00 0.00 0.00 61 1032.1
20181115061837 36 219 0.0 1.0 0.00 0.00 0.00 62 1032.1
20181115061327 36 219 0.0 2.0 0.00 0.00 0.00 63 1032.3
20181115060844 36 219 0.0 2.0 0.00 0.00 0.00 61 1032.6
20181115060328 36 219 0.0 1.0 0.00 0.00 0.00 60 1032.5
20181115055825 36 219 0.0 1.0 0.00 0.00 0.00 61 1032.5
20181115055316 36 219 0.0 1.0 0.00 0.00 0.00 61 1032.4
20181115054832 36 219 0.0 1.0 0.00 0.00 0.00 61 1032.5
20181115054324 36 219 0.0 1.0 0.00 0.00 0.00 62 1032.4
20181115053838 36 219 0.0 1.0 0.00 0.00 0.00 63 1032.4
20181115053326 36 219 0.0 0.0 0.00 0.00 0.00 63 1032.4
20181115052822 36 219 0.0 2.0 0.00 0.00 0.00 65 1032.5
20181115052334 36 219 0.0 2.0 0.00 0.00 0.00 63 1032.7
20181115051832 36 219 0.0 0.0 0.00 0.00 0.00 62 1032.8
20181115051329 36 219 0.0 1.0 0.00 0.00 0.00 61 1032.9
20181115050822 36 219 0.0 2.0 0.00 0.00 0.00 63 1032.6
20181115050332 36 219 0.0 0.0 0.00 0.00 0.00 62 1032.8
20181115045828 36 219 0.0 1.0 0.00 0.00 0.00 61 1032.7
20181115045320 36 219 0.0 1.0 0.00 0.00 0.00 61 1032.5
20181115044833 37 219 0.0 1.0 0.00 0.00 0.00 63 1032.3
20181115044325 37 219 0.0 2.0 0.00 0.00 0.00 64 1032.2
20181115043838 37 219 0.0 2.0 0.00 0.00 0.00 63 1032.2
20181115043333 37 219 0.0 1.0 0.00 0.00 0.00 65 1032.3
20181115042829 37 219 0.0 2.0 0.00 0.00 0.00 64 1032.3
20181115042328 37 219 0.0 2.0 0.00 0.00 0.00 63 1032.2
20181115041818 37 219 0.0 1.0 0.00 0.00 0.00 63 1032.4
20181115041333 37 219 0.0 0.0 0.00 0.00 0.00 64 1032.4
20181115040846 37 219 0.0 1.0 0.00 0.00 0.00 65 1032.4
20181115040326 37 219 0.0 1.0 0.00 0.00 0.00 65 1032.4
20181115035819 37 219 0.0 0.0 0.00 0.00 0.00 63 1032.8
20181115035332 37 219 0.0 1.0 0.00 0.00 0.00 65 1032.5
20181115034822 37 219 0.0 1.0 0.00 0.00 0.00 65 1032.5
20181115034319 37 219 0.0 1.0 0.00 0.00 0.00 64 1032.4
20181115033832 37 219 0.0 1.0 0.00 0.00 0.00 62 1032.5
20181115033327 37 219 0.0 1.0 0.00 0.00 0.00 65 1032.4
20181115032838 37 219 0.0 2.0 0.00 0.00 0.00 65 1032.3
20181115032332 37 219 0.0 1.0 0.00 0.00 0.00 65 1032.7
20181115031817 37 219 0.0 2.0 0.00 0.00 0.00 65 1032.9
20181115031337 37 219 1.0 2.0 0.00 0.00 0.00 65 1033.1
20181115030832 37 219 0.0 1.0 0.00 0.00 0.00 64 1032.7
20181115030319 37 219 0.0 1.0 0.00 0.00 0.00 67 1032.4
20181115025830 37 219 0.0 1.0 0.00 0.00 0.00 67 1032.3
20181115025322 37 225 0.0 1.0 0.00 0.00 0.00 66 1032.3
20181115024831 37 225 0.0 1.0 0.00 0.00 0.00 65 1032.2
20181115024322 37 225 0.0 1.0 0.00 0.00 0.00 67 1032.1
20181115023835 37 225 0.0 2.0 0.00 0.00 0.00 68 1031.8
20181115023327 37 225 0.0 2.0 0.00 0.00 0.00 66 1032.2
20181115022820 37 225 0.0 2.0 0.00 0.00 0.00 67 1032.2
20181115022320 37 225 0.0 2.0 0.00 0.00 0.00 67 1032.2
20181115021837 37 225 0.0 1.0 0.00 0.00 0.00 67 1032.1
20181115021329 37 225 0.0 1.0 0.00 0.00 0.00 67 1032.2
20181115020823 37 225 0.0 1.0 0.00 0.00 0.00 68 1032.3
20181115020335 37 225 0.0 0.0 0.00 0.00 0.00 70 1032.2
20181115015828 37 225 0.0 0.0 0.00 0.00 0.00 72 1032.4
20181115015321 37 225 0.0 0.0 0.00 0.00 0.00 71 1032.5
20181115014838 37 225 0.0 0.0 0.00 0.00 0.00 72 1032.5
20181115014334 37 225 0.0 0.0 0.00 0.00 0.00 73 1032.5
20181115013826 37 225 0.0 0.0 0.00 0.00 0.00 73 1032.4
20181115013332 37 225 0.0 0.0 0.00 0.00 0.00 74 1032.3
20181115012825 37 225 0.0 0.0 0.00 0.00 0.00 74 1032.2
20181115012335 37 225 0.0 0.0 0.00 0.00 0.00 75 1032.3